TIBA-1

Last updated on Thu Nov 21 2024 00:02:44 GMT+0000 (Coordinated Universal Time)

1 44800U 19080A 24325.27966064 .00000157 00000+0 00000+0 0 9991 2 44800 0.0564 5.4366 0002353 235.3371 315.1909 1.00272722 18307
UTC large
Height (km)
Speed (km/s)
/
Latitude / Longitude
Inclination (degrees)
Orbital Period (minutes)
Azimuth
Elevation
Range (km)
Doppler Factor

Next 0 passes for location: London (51.5072 / 0.1276)

Sorry there are no passes over London.